Salina, KS

5:37 PM CST on December 16, 2017 (GMT -0600)
Salina Municipal

Weather History for KSLN - November, 2011

Change the Weather History Date:

Monday, November 7, 2011

  Actual Average Record
Temperature  
Mean Temperature 43 °F 48 °F  
Max Temperature 54 °F 60 °F 80 °F (1954)
Min Temperature 31 °F 37 °F 15 °F (1991)
Degree Days  
Heating Degree Days 22 17  
Month to date heating degree days 122 107  
Since 1 July heating degree days 422 425  
Cooling Degree Days 0 0  
Month to date cooling degree days 0 0  
Year to date cooling degree days 2003 1646  
Moisture  
Dew Point 37 °F    
Average Humidity 69    
Maximum Humidity 92    
Minimum Humidity 46    
Precipitation  
Precipitation 0.82 in 0.05 in 0.82 in (2011)
Month to date precipitation 1.18 0.35  
Year to date precipitation 18.14 29.66  
Sea Level Pressure  
Sea Level Pressure 30.03 in    
Wind  
Wind Speed 11 mph (NNE)    
Max Wind Speed 26 mph    
Max Gust Speed 36 mph    
Visibility 8 miles    
Events Rain , Thunderstorm    
T = Trace of Precipitation, MM = Missing Value Source: NWS Daily Summary

Daily Weather History Graph

Daily Weather History Graph

Search for Another Location

Airport or City:

Trip Planner

Search our weather history database for the weather conditions in past years. The results will help you decide how hot, cold, wet, or windy it might be!

Date:

Astronomy

Nov. 07, 2011 Rise Set
Actual Time 7:03 AM CST 5:24 PM CST
Civil Twilight 6:35 AM CST 5:52 PM CST
Nautical Twilight 6:04 AM CST 6:23 PM CST
Astronomical Twilight 5:33 AM CST 6:54 PM CST
Moon 3:34 PM CST (11/7) 4:09 AM CST (11/7)
Length of Visible Light 11h 16m
Length of Day
10h 20m
Waxing Gibbous, 92% of the Moon is Illuminated
Nov 7
Waxing Gibbous
Nov 10
Full
Nov 18
Last Quarter
Nov 25
New
Dec 2
First Quarter

Hourly Weather History & Observations

Time (CST) Temp. Windchill Dew Point Humidity Pressure Visibility Wind Dir Wind Speed Gust Speed Precip Events Conditions
12:53 AM 37.0 °F - 27.0 °F 67% 30.08 in 10.0 mi Calm Calm - N/A   Clear
1:53 AM 35.1 °F 31.0 °F 27.0 °F 72% 30.08 in 10.0 mi NNW 4.6 mph - N/A   Clear
2:53 AM 34.0 °F 28.8 °F 27.0 °F 75% 30.09 in 10.0 mi NW 5.8 mph - N/A   Clear
3:53 AM 34.0 °F 29.8 °F 27.0 °F 75% 30.09 in 10.0 mi NNW 4.6 mph - N/A   Clear
4:53 AM 32.0 °F 27.5 °F 26.1 °F 79% 30.11 in 10.0 mi NNW 4.6 mph - N/A   Clear
5:53 AM 32.0 °F 26.4 °F 26.1 °F 79% 30.12 in 10.0 mi NNW 5.8 mph - N/A   Clear
6:53 AM 34.0 °F 28.8 °F 28.0 °F 79% 30.14 in 10.0 mi NNW 5.8 mph - N/A   Overcast
7:53 AM 39.9 °F 35.1 °F 30.0 °F 68% 30.10 in 10.0 mi NE 6.9 mph - N/A   Mostly Cloudy
8:53 AM 44.6 °F 38.4 °F 30.2 °F 57% 30.11 in 10.0 mi East 12.7 mph - N/A   Partly Cloudy
9:53 AM 50.0 °F - 32.0 °F 50% 30.11 in 10.0 mi ENE 10.4 mph - N/A   Clear
10:09 AM 51.8 °F - 33.8 °F 50% 30.09 in 10.0 mi East 10.4 mph - N/A   Mostly Cloudy
10:53 AM 52.0 °F - 33.1 °F 49% 30.09 in 10.0 mi NE 6.9 mph - N/A   Overcast
11:01 AM 53.6 °F - 33.8 °F 47% 30.07 in 10.0 mi NE 8.1 mph - N/A   Overcast
11:15 AM 53.6 °F - 33.8 °F 47% 30.07 in 10.0 mi NE 8.1 mph - N/A   Overcast
11:53 AM 54.0 °F - 34.0 °F 47% 30.06 in 10.0 mi NE 10.4 mph - N/A   Overcast
12:53 PM 48.0 °F - 41.0 °F 77% 30.04 in 3.0 mi North 10.4 mph - 0.09 in Rain Rain
1:53 PM 46.9 °F - 43.0 °F 86% 30.03 in 2.5 mi North 10.4 mph - 0.20 in Rain Heavy Rain
2:38 PM 46.4 °F 39.8 °F 42.8 °F 87% 29.97 in 2.5 mi North 16.1 mph - 0.18 in Rain , Thunderstorm Heavy Thunderstorms and Rain
2:53 PM 45.0 °F 38.2 °F 42.1 °F 90% 30.01 in 2.5 mi North 15.0 mph - 0.25 in Rain , Thunderstorm Heavy Thunderstorms and Rain
2:55 PM 44.6 °F 37.8 °F 42.8 °F 93% 29.99 in 3.0 mi North 15.0 mph - 0.00 in Rain , Thunderstorm Heavy Thunderstorms and Rain
3:01 PM 44.6 °F 38.8 °F 42.8 °F 93% 30.00 in 3.0 mi North 11.5 mph - 0.02 in Rain Heavy Rain
3:53 PM 44.1 °F 36.2 °F 42.1 °F 93% 30.01 in 3.0 mi North 18.4 mph - 0.24 in Rain Rain
4:28 PM 44.6 °F 35.9 °F 41.0 °F 87% 29.95 in 6.0 mi NE 23.0 mph 29.9 mph 0.03 in Rain Light Rain
4:53 PM 44.1 °F 35.9 °F 41.0 °F 89% 29.98 in 10.0 mi NE 19.6 mph 32.2 mph 0.03 in Rain Light Rain
5:06 PM 44.6 °F 35.9 °F 41.0 °F 87% 29.95 in 5.0 mi NE 23.0 mph 33.4 mph 0.00 in Rain Light Rain
5:53 PM 44.1 °F 35.7 °F 42.1 °F 93% 29.97 in 5.0 mi NE 20.7 mph 26.5 mph 0.00 in Rain Light Rain
6:53 PM 45.0 °F 38.2 °F 42.1 °F 90% 29.98 in 10.0 mi NNE 15.0 mph - 0.00 in   Overcast
7:02 PM 44.6 °F 36.9 °F 42.8 °F 93% 29.96 in 10.0 mi NNE 18.4 mph 24.2 mph N/A   Overcast
7:53 PM 44.6 °F 37.8 °F 42.8 °F 93% 29.97 in 10.0 mi NE 15.0 mph 23.0 mph N/A   Overcast
8:53 PM 45.0 °F 39.3 °F 42.1 °F 90% 29.96 in 5.0 mi NNE 11.5 mph - 0.00 in Rain Light Rain
9:53 PM 45.0 °F 38.9 °F 42.1 °F 90% 29.99 in 10.0 mi NNE 12.7 mph - 0.00 in   Overcast
10:38 PM 44.6 °F 38.1 °F 42.8 °F 93% 29.96 in 6.0 mi NNE 13.8 mph 20.7 mph N/A   Overcast
10:53 PM 44.1 °F 37.1 °F 42.1 °F 93% 29.97 in 5.0 mi NNE 15.0 mph - N/A   Overcast
11:53 PM 44.1 °F 37.7 °F 42.1 °F 93% 29.95 in 2.5 mi NE 12.7 mph - 0.01 in Rain Light Rain